Simultaneous Nadir Overpasses (SNOs) Predictions

Prediction of SNOs between NOAA-19 and NPP Satellite Orbit:

Table of predicted SNOs for the next 14.0 days since TLE Epoch: 7/5/2012
Index Date (NOAA-19) Time (NOAA-19) NOAA-19 Lat,Lon Date (NPP) Time (NPP) NPP Lat,Lon Distance(km) Time Diff (sec)
1 07/15/2012 16:42:24 -80.67, 61.88 07/15/2012 16:43:36 -80.67, 61.72 3.06 72
2 07/15/2012 17:33:24 80.68,-131.04 07/15/2012 17:34:21 80.67,-130.99 0.73 57
3 07/15/2012 18:24:26 -80.60, 37.46 07/15/2012 18:25:03 -80.61, 37.33 2.45 37
4 07/15/2012 19:15:26 80.61,-155.45 07/15/2012 19:15:48 80.61,-155.38 1.33 22
5 07/15/2012 20:06:28 -80.54, 13.02 07/15/2012 20:06:30 -80.54, 12.93 1.83 2
6 07/15/2012 20:57:28 80.55,-179.88 07/15/2012 20:57:15 80.54,-179.78 1.94 13
7 07/15/2012 21:48:29 -80.45, -11.10 07/15/2012 21:47:56 -80.45, -11.16 1.20 33
8 07/15/2012 22:39:30 80.48, 155.67 07/15/2012 22:38:42 80.47, 155.81 2.58 48




NCC Satellite Simultaneous Nadir Overpasses (SNOs) Prediction Service
